Regional Weather Roundup
Issued by NWS Green Bay, WI

Home | Current Version | Previous Version | Graphics & Text | Print | Product List | Glossary Off
Versions: 1 2 3 4 5 6 7 8 9 10 11 12 13 14 15 16 17 18 19 20 21 22 23 24 25 26 27 28 29 30 31 32 33 34 35 36 37 38 39 40 41 42 43 44 45 46 47 48 49 50

000
ASUS43 KGRB 261811
RWRGRB

NORTH-CENTRAL AND NORTHEAST WISCONSIN REGIONAL WEATHER ROUNDUP
NATIONAL WEATHER SERVICE GREEN BAY WI
100 PM CDT WED JUL 26 2017

WIZ005-009-010>012-018-019-261900-
NORTH CENTRAL WISCONSIN

CITY           SKY/WX    TMP DP  RH WIND       PRES   REMARKS
IRONWOOD       SUNNY     77  62  59 W10       29.98F
MANITOWISH WTR CLOUDY    75  65  71 NW7       30.00S
ARBOR VITAE    CLOUDY    77  70  80 W7        30.00S
EAGLE RIVER    CLOUDY    74  68  81 W12       29.99S
LAND O LAKES   CLOUDY    77  63  62 W8        30.00S
RHINELANDER    CLOUDY    71  70  96 W8        30.01S
PHILLIPS       CLOUDY    72  69  89 W5        30.01S
ANTIGO         DRIZZLE   70  69  96 NW6       30.00F
TOMAHAWK       LGT RAIN  69  67  92 NW6       30.00F
MERRILL        NOT AVBL
$$

WIZ013-073-261900-
NORTHEAST WISCONSIN

CITY           SKY/WX    TMP DP  RH WIND       PRES   REMARKS
IRON MOUNTAIN  CLOUDY    75  68  78 W6        29.94F
MARINETTE      LGT RAIN  71  69  93 SW9       29.96F
OCONTO         CLOUDY    71  69  91 SW8       29.96F
$$

WIZ017-030-035>037-045-261900-
CENTRAL WISCONSIN

CITY           SKY/WX    TMP DP  RH WIND       PRES   REMARKS
MEDFORD        CLOUDY    70  68  93 SW5       30.01S
WAUSAU         CLOUDY    71  69  93 W9        30.00R
MOSINEE        PTSUNNY   73  70  88 SW9       30.04R
MARSHFIELD     CLOUDY    73  67  81 W8        30.02S
WISC RAPIDS    CLOUDY    80  70  71 W9        30.02S
STEVENS POINT  CLOUDY    73  69  87 SW7       30.02S
WAUPACA        CLOUDY    78  71  77 S6        30.00F
SHAWANO        PTSUNNY   77  71  79 SW8       29.98S
CLINTONVILLE   CLOUDY   N/A N/A N/A SW9       29.99F
WAUTOMA        MOSUNNY   81  71  71 SW6       30.00F
$$

WIZ038-039-048-051-261900-
FOX VALLEY

CITY           SKY/WX    TMP DP  RH WIND       PRES   REMARKS
NWS GREEN BAY  MOSUNNY   75  71  87 SW7       29.98F
APPLETON       PTSUNNY   75  68  78 SW10      29.99F
OSHKOSH        CLOUDY    78  70  76 S8        30.00F
FOND DU LAC    CLOUDY    76  68  76 SW6       30.01F
$$

WIZ022-050-052-261900-
EAST CENTRAL WISCONSIN

CITY           SKY/WX    TMP DP  RH WIND       PRES   REMARKS
EPHRAIM        LGT RAIN  69  67  93 SW8       29.96R
WASHINGTON ISL DRIZZLE   68  67  97 S5        29.93R
STURGEON BAY     N/A     71  68  90 SW13      29.98R
MANITOWOC      LGT RAIN  73  68  84 SW7       30.01F
SHEBOYGAN      CLOUDY    78  72  81 S8        30.01F
$$

LMZ563-521-522-541>543-261900-
LAKESHORE

STATION/POSITION TIME  TEMP    WIND        PRES    VSBY  WAVE
                       AIR SEA DIR/SP/G                  HT/PER
                 (UTC) (F)     (DEG/KT/KT) (MB)    (MI)  (FT/S)
SHEBOYGAN LKSHOR 1800   69     170/ 12/ 13 1015.5F
KEWAUNEE LKSHORE 1742   72     210/  5/  8 1015.0R
NORTHPORT PIER   1740   69     240/  2/  5 1013.9F
N MID LAKE BUOY  1750   67 65  180/  8/ 10 1013.2          4/ 6
S GREEN BAY BUOY 1800   71 71  210/ 16/ 17 1014.5
SISTER BAY LKSHO 1802   71     250/ 10/ 12   N/A
CHAMBERS ISLAND  1740   70     190/  6/ 10 1013.5R
MENOMINEE LKSHOR 1742   71     200/  8/ 13 1014.0S
$$



USA.gov is the U.S. government's official web portal to all federal, state and local government web resources and services.